Home > Weather > Bamenda > Past weeks

Flag for Cameroon Weather for the Past 2 Weeks in Bamenda, Cameroon

Now
90 °F

Scattered clouds.


Feels Like: 100 °F
Forecast: 61 / 81 °F
Wind: No wind

Location: Douala Obs.

Current Time: May 6, 2016 at 12:21:57 PM

Latest Report: May 6, 2016 at 12:00 PM


Visibility: N/A

Pressure: 29.89 "Hg (26.01 "Hg at 1240m altitude)

Humidity: 63%

Dew Point: 75 °F

Location of BamendaLocation

Historic Weather in Bamenda — Graph

°F

Bamenda Temperature Yesterday

Maximum temperature yesterday: 88 °F (at 11:00 AM)
Minimum temperature yesterday: 79 °F (at 1:00 AM)
Average temperature yesterday: 83 °F

High & Low Weather Summary for the Past Weeks

 TemperatureHumidityPressure
High93 °F (Apr 21, 3:00 PM)100% (Apr 23, 7:00 AM)29.92 "Hg (Apr 23, 7:00 AM)
Low75 °F (Apr 27, 7:00 AM)56% (Apr 28, 4:00 PM)29.68 "Hg (Apr 28, 5:00 PM)
Average83 °F85%29.80 "Hg
* Reported Apr 21 11:00 AM — May 6 11:00 AM, Bamenda, Weather by CustomWeather, © 2016

Note: Actual official high and low records may vary slightly from our data, if they occured in-between our weather recording intervals... More about our weather records

Advertising

Bamenda Weather History for the Previous 24 Hours

Scroll right to see more
 ConditionsComfort  
Time TempWeatherWind HumidityBarometerVisibility
11:00 AM
Fri, May 6
88 °FScattered clouds.2 mph62%29.89 "HgN/A
10:00 AM86 °FPartly sunny.2 mph75%29.92 "HgN/A
9:00 AM81 °FPartly sunny.2 mph84%29.89 "HgN/A
8:00 AM79 °FPartly sunny.3 mph100%29.86 "Hg6 mi
7:00 AM79 °FBroken clouds.No wind94%29.86 "Hg4 mi
6:00 AM79 °FThunderstorms. Fog.No wind94%29.83 "Hg3 mi
5:00 AM79 °FThunderstorms. Passing clouds.No wind94%29.83 "HgN/A
4:00 AM79 °FThunderstorms. Passing clouds.No wind94%29.83 "HgN/A
3:00 AM79 °FThunderstorms. Passing clouds.No wind94%29.86 "HgN/A
2:00 AM79 °FThunderstorms. Passing clouds.2 mph100%29.86 "HgN/A
1:00 AM81 °FThunderstorms. Passing clouds.2 mph89%29.89 "HgN/A
12:00 AM81 °FThunderstorms. Passing clouds.1 mph89%29.92 "HgN/A
11:00 PM
Thu, May 5
81 °FThunderstorms. Passing clouds.No wind89%29.92 "HgN/A
10:00 PM81 °FThunderstorms. Passing clouds.No wind94%29.89 "HgN/A
9:00 PM81 °FPassing clouds.No wind94%29.89 "HgN/A
8:00 PM84 °FPassing clouds.2 mph84%29.86 "HgN/A
7:00 PM84 °FThunderstorms. Passing clouds.5 mph84%29.83 "HgN/A
6:00 PM86 °FThunderstorms. Broken clouds.6 mph79%29.83 "HgN/A
5:00 PM86 °FThunderstorms. Broken clouds.8 mph79%29.80 "HgN/A
4:00 PM84 °FThunderstorms. Broken clouds.6 mph79%29.83 "HgN/A
3:00 PM84 °FThunderstorms. Broken clouds.10 mph70%29.86 "HgN/A
2:00 PM84 °FThunderstorms. Broken clouds.8 mph89%29.86 "HgN/A
1:00 PM86 °FBroken clouds.8 mph79%29.89 "HgN/A
12:00 PM88 °FPartly sunny.9 mph70%29.89 "HgN/A
Weather by CustomWeather, © 2016

See weather overviewHow to use our weather pages